Terminal Aerodrome Forecast
Issued by NWS

Home | Current Version | Previous Version | Graphics & Text | Print | Product List | Glossary On
Versions: 1 2 3 4 5 6 7 8 9 10 11 12 13 14 15 16 17 18 19 20 21 22 23 24 25 26 27 28 29 30 31 32 33 34 35 36 37 38 39 40 41 42 43 44 45 46 47 48 49 50
000
FTUS43 KLOT 300304 AAB
TAFGYY
TAF AMD
KGYY 300304Z 3003/3024 VRB03KT 6SM BR SCT020 OVC040
     FM300500 VRB03KT 1SM BR OVC005
     FM300700 02003KT 1/2SM FG OVC005
     FM301400 02004KT 3SM HZ SCT005 BKN009
     FM301800 09006KT P6SM SCT010 BKN025
     FM302300 12004KT P6SM SCT025=

USA.gov is the U.S. government's official web portal to all federal, state and local government web resources and services.